This is the latest recevied weather packets stored in our database for station/object K1BES. If no packets are shown the sender has not sent any weather packets the latest 10 day(s).
| Time | Temp. | Humidity | Pressure | Rain* | Wind** | Luminosity | Snow |
|---|---|---|---|---|---|---|---|
| 1787664506 | 31.67° C | 71% | 1020.3 hPa | 0 mm | - | 204 W/m² | - |
| 1787664201 | 31.67° C | 71% | 1020.1 hPa | 0 mm | - | 344 W/m² | - |
| 1787663900 | 31.11° C | 72% | 1020.2 hPa | 0 mm | - | 138 W/m² | - |
| 1787663595 | 31.67° C | 73% | 1020 hPa | 0 mm | - | 240 W/m² | - |
| 1787663291 | 30.56° C | 76% | 1020.2 hPa | 0 mm | - | 282 W/m² | - |
| 1787662987 | 30.56° C | 76% | 1019.9 hPa | 0 mm | - | 247 W/m² | - |
| 1787662682 | 30.56° C | 76% | 1019.7 hPa | 0 mm | - | 144 W/m² | - |
| 1787662377 | 30° C | 78% | 1019.9 hPa | 0 mm | - | 162 W/m² | - |
| 1787662073 | 30° C | 78% | 1020 hPa | 0 mm | - | 204 W/m² | - |
| 1787661769 | 30° C | 80% | 1019.9 hPa | 0 mm | - | 167 W/m² | - |
| 1787661468 | 28.89° C | 82% | 1019.7 hPa | 0 mm | - | 164 W/m² | - |
| 1787661167 | 27.78° C | 86% | 1019.7 hPa | 0 mm | - | 149 W/m² | - |
| 1787660866 | 27.22° C | 89% | 1019.9 hPa | 0 mm | - | 133 W/m² | - |
| 1787660561 | 26.67° C | 92% | 1019.9 hPa | 0 mm | - | 118 W/m² | - |
| 1787660261 | 26.11° C | 93% | 1019.5 hPa | 0 mm | - | 80 W/m² | - |
| 1787659957 | 26.11° C | 94% | 1019.8 hPa | 0 mm | - | 44 W/m² | - |
| 1787659653 | 25.56° C | 94% | 1019.6 hPa | 0 mm | - | 41 W/m² | - |
| 1787659349 | 25.56° C | 94% | 1019.7 hPa | 0 mm | - | 38 W/m² | - |
| 1787659048 | 25.56° C | 95% | 1019.7 hPa | 0 mm | - | 33 W/m² | - |
| 1787658744 | 25.56° C | 95% | 1019.6 hPa | 0 mm | - | 29 W/m² | - |
| 1787658443 | 25° C | 95% | 1019.7 hPa | 0 mm | - | 26 W/m² | - |
| 1787658140 | 25° C | 95% | 1019.6 hPa | 0 mm | - | 24 W/m² | - |
| 1787657835 | 25° C | 95% | 1019.4 hPa | 0 mm | - | 21 W/m² | - |
| 1787657536 | 25° C | 95% | 1019.2 hPa | 0 mm | - | 19 W/m² | - |
| 1787657235 | 25° C | 95% | 1019.3 hPa | 0 mm | - | 16 W/m² | - |
* Rain latest hour (hover to see other rain measurements)
** Current wind speed in m/s (hover to see current wind gust speed)